Hourly Data Report for December 19, 2020

L'ASSOMPTION
QUEBEC
Current Station Operator: ECCC - MSC

45°48'34.000" N
73°26'05.000" W
21.00 m
7014160
71524
WEW

Download Data

Hourly Data (December 2020)
Hourly Data Report for December 19, 2020
TIME
LST
Temp Definition
°C
Dew Point Definition
°C
Rel Hum Definition
%
Precip. Amount Definition
mm

Wind Dir Definition
10's deg

Wind Spd Definition
km/h
Visibility Definition
km
Stn Press Definition
kPa
Hmdx Definition


Wind Chill Definition


Weather Definition


00:00 -13.9 -15.7 86 0.0 29 2   102.78   -15 LegendNANA
01:00 -13.8 -15.9 85 0.0 3 1   102.75   -14 LegendNANA
02:00 -14.2 -16.1 85 0.0   0   102.79     LegendNANA
03:00 -14.7 -16.5 86 0.0 35 2   102.74   -16 LegendNANA
04:00 -15.0 -17.0 85 0.0 32 2   102.77   -16 LegendNANA
05:00 -15.0 -16.9 85 0.0 0 1   102.74   -16 LegendNANA
06:00 -14.9 -16.9 85 0.0   0   102.73     LegendNANA
07:00 -14.6 -16.6 84 0.0 30 2   102.74   -16 LegendNANA
08:00 -14.5 -16.7 83 0.0 1 2   102.75   -16 LegendNANA
09:00 -11.9 -15.2 76 0.0 36 2   102.74   -13 LegendNANA
10:00 -8.7 -12.7 72 0.0 0 1   102.74   -9 LegendNANA
11:00 -6.3 -11.0 69 0.0 12 2   102.65   -7 LegendNANA
12:00 -4.8 -11.4 60 0.0 20 4   102.55   -7 LegendNANA
13:00 -5.0 -10.6 64 0.0 16 8   102.48   -9 LegendNANA
14:00 -4.9 -11.3 61 0.0 18 6   102.42   -8 LegendNANA
15:00 -4.5 -10.9 61 0.0 24 3   102.43   -6 LegendNANA
16:00 -4.6 -10.5 63 0.0   0   102.39     LegendNANA
17:00 -4.5 -10.0 65 0.0 8 2   102.39   -5 LegendNANA
18:00 -4.2 -8.2 74 0.0 7 4   102.37   -6 LegendNANA
19:00 -3.7 -8.8 67 0.0 15 6   102.32   -6 LegendNANA
20:00 -3.9 -8.5 70 0.0 12 2   102.27   -5 LegendNANA
21:00 -3.9 -8.0 73 0.0 6 4   102.24   -6 LegendNANA
22:00 -3.8 -8.4 70 0.0 8 4   102.18   -5 LegendNANA
23:00 -3.7 -8.6 69 0.0 8 5   102.17   -6 LegendNANA

Notes on Data Quality.

Legend

  • E = Estimated
  • M = Missing
  • NA = Not Available*
  • [empty] = Indicates an unobserved value
Date modified: